CUBESAT XI-IV (CO-57)

Last updated on Thu Nov 21 2024 00:03:02 GMT+0000 (Coordinated Universal Time)

1 27848U 03031J 24325.48879789 .00000584 00000+0 27846-3 0 9998 2 27848 98.6816 330.5442 0010699 70.2781 289.9551 14.23034802109769
UTC large
Height (km)
Speed (km/s)
/
Latitude / Longitude
Inclination (degrees)
Orbital Period (minutes)
Azimuth
Elevation
Range (km)
Doppler Factor

Next 0 passes for location: London (51.5072 / 0.1276)

Sorry there are no passes over London.